OPS 4682 DEB, 18670

Orbit data source: Space-Track

OPS 4682 DEB, 18670 is space debris in LEO originally from a launch on Sat, 03 Apr 1965 UTC launched from the Air Force Western Test Range (AFWTR). Debris objects in space refer to the collection of defunct objects orbiting the Earth. Examples of debris include non-operational satellites, rocket bodies, and fragments generated from explosions, collisions, or faulty payload assembly.

Loading next visibility...
Identifier
18670, 1965-027AG
Orbit
LEO
Country
Flag of USUS
Related business
Manufacturer
Unknown
Mission
Spacecraft
Bus & Motor
Unknown
Mass
Unknown
Launch date (UTC)
1965-04-03 (61 years ago)
Launch vehicle
Unknown
Launch site
Air Force Western Test Range (AFWTR)
Object type
Payload
Rocket body
Debris
Shape & HBR
Unknown shape, 0.1 m
Radar Cross Section
Small (<0.1 m²)

Expand to show TLE details & history
Last TLE update: 2 days ago

TLE from 2 days ago
0 OPS 4682 DEB
1 18670U 65027AG  25293.10996052  .00000699  00000-0  23916-2 0  9992
2 18670  90.2384 351.0784 0025496  53.9694 306.3784 12.97100484631647
Epoch: 2025-10-20T02:38Z
TLE epoch observation values (Epoch: 2025-10-20T02:38:20.588Z)
Latitude
-0.00005°
Longitude
-77.32437°
Altitude
1,264.807 km
Speed
7.228 km/s
True Right ascension
23h 24m 18s
True Declination
0° 00' 00"
Sunlit
Object was in full shadow at epoch
Visualization orbit readout
Latitude
Unknown
Longitude
Unknown
Altitude
Unknown
Speed
Unknown
Apparent Right ascension
Unknown
Apparent Declination
Unknown
Sunlit
N/A
Visualization observer readout
Local Sidereal Time
12:47:36
Azimuth
Unknown
Elevation
Unknown
Doppler factor
Unknown
Orbital elements
Apogee altitude
1,290.101 km
Perigee altitude
1,251.098 km
Semi-major axis
7,648.737 km
Eccentricity
0.00255
Inclination
90.2384°
RAAN
351.0784°
Arg. of periapsis
53.9694°
True anomaly
306.14273°
Mean anomaly
306.3784°
Eccentric anomaly
306.26061°
Mean motion
3.24458 °/min
Orbital period
110.95 mins
BSTAR
0.0023916
Loading maneuver chart data...
Computing Atmospheric mass density...
Loading historical data...
Loading historical data...
Loading historical data...
Loading historical data...
Loading historical data...
Loading historical data...
Loading historical data...

Documentation

Showing up to 5 results
|